Time,TemperatureF,DewpointF,PressureIn,WindDirection,WindDirectionDegrees,WindSpeedMPH,WindSpeedGustMPH,Humidity,HourlyPrecipIn,Conditions,Clouds,dailyrainin,SoftwareType,DateUTC
2013-06-14 00:05:00,56.0,56.0,29.69,NNW,337,3.0,3.0,100,0.00,,,0.00,TxWx,2013-06-14 04:05:00,
2013-06-14 00:12:00,56.0,56.0,29.69,NE,45,1.0,2.0,100,0.00,,,0.00,TxWx,2013-06-14 04:12:00,
2013-06-14 00:17:00,56.0,56.0,29.69,NE,45,1.0,2.0,100,0.00,,,0.00,TxWx,2013-06-14 04:17:00,
2013-06-14 00:22:00,56.0,56.0,29.69,ESE,112,0.0,0.0,100,0.00,,,0.00,TxWx,2013-06-14 04:22:00,
2013-06-14 00:27:00,56.0,56.0,29.69,SE,135,0.0,0.0,100,0.00,,,0.00,TxWx,2013-06-14 04:27:00,
2013-06-14 00:33:00,56.0,56.0,29.69,NW,315,0.0,0.0,100,0.00,,,0.00,TxWx,2013-06-14 04:33:00,
2013-06-14 00:38:00,56.0,56.0,29.69,East,90,0.0,0.0,100,0.00,,,0.00,TxWx,2013-06-14 04:38:00,
2013-06-14 00:43:00,56.0,56.0,29.69,SSE,157,0.0,1.0,100,0.00,,,0.00,TxWx,2013-06-14 04:43:00,
2013-06-14 00:48:00,56.0,56.0,29.70,ESE,112,0.0,0.0,100,0.00,,,0.00,TxWx,2013-06-14 04:48:00,
2013-06-14 00:53:00,56.0,56.0,29.70,SSE,157,0.0,0.0,100,0.00,,,0.00,TxWx,2013-06-14 04:53:00,
2013-06-14 00:58:00,56.0,56.0,29.69,ENE,67,0.0,0.0,100,0.00,,,0.00,TxWx,2013-06-14 04:58:00,
2013-06-14 01:03:00,56.0,56.0,29.69,ESE,112,0.0,0.0,100,0.00,,,0.00,TxWx,2013-06-14 05:03:00,
2013-06-14 01:08:00,56.0,56.0,29.69,WSW,247,2.0,3.0,100,0.00,,,0.00,TxWx,2013-06-14 05:08:00,
2013-06-14 01:13:00,56.0,56.0,29.69,WNW,292,3.0,3.0,100,0.00,,,0.00,TxWx,2013-06-14 05:13:00,
2013-06-14 01:18:00,57.0,57.0,29.69,NNE,22,1.0,2.0,100,0.00,,,0.01,TxWx,2013-06-14 05:18:00,
2013-06-14 01:23:00,57.0,57.0,29.69,NE,45,1.0,3.0,100,0.60,,,0.01,TxWx,2013-06-14 05:23:00,
2013-06-14 01:28:00,57.0,57.0,29.69,NW,315,1.0,1.0,100,0.60,,,0.01,TxWx,2013-06-14 05:28:00,
2013-06-14 01:33:00,57.0,57.0,29.69,WNW,292,4.0,4.0,100,0.00,,,0.01,TxWx,2013-06-14 05:33:00,
2013-06-14 01:38:00,57.0,57.0,29.69,WNW,292,1.0,2.0,100,0.00,,,0.01,TxWx,2013-06-14 05:38:00,
2013-06-14 01:44:00,57.0,57.0,29.69,North,0,0.0,2.0,100,0.00,,,0.01,TxWx,2013-06-14 05:44:00,
2013-06-14 01:49:00,57.0,57.0,29.69,WNW,292,3.0,3.0,100,0.00,,,0.01,TxWx,2013-06-14 05:49:00,
2013-06-14 01:54:00,57.0,57.0,29.69,NNE,22,1.0,1.0,100,0.00,,,0.01,TxWx,2013-06-14 05:54:00,
2013-06-14 01:59:00,57.0,57.0,29.69,West,270,0.0,0.0,100,0.00,,,0.01,TxWx,2013-06-14 05:59:00,
2013-06-14 02:04:00,57.0,57.0,29.69,North,0,1.0,2.0,100,0.00,,,0.01,TxWx,2013-06-14 06:04:00,
2013-06-14 02:09:00,56.0,56.0,29.69,NW,315,0.0,1.0,100,0.00,,,0.01,TxWx,2013-06-14 06:09:00,
2013-06-14 02:14:00,56.0,56.0,29.69,North,0,2.0,2.0,100,0.00,,,0.01,TxWx,2013-06-14 06:14:00,
2013-06-14 02:19:00,56.0,56.0,29.69,North,0,0.0,0.0,100,0.00,,,0.01,TxWx,2013-06-14 06:19:00,
2013-06-14 02:29:00,56.0,56.0,29.69,NNE,22,0.0,0.0,100,0.00,,,0.01,TxWx,2013-06-14 06:29:00,
2013-06-14 02:34:00,56.0,56.0,29.69,North,0,0.0,0.0,100,0.00,,,0.01,TxWx,2013-06-14 06:34:00,
2013-06-14 02:39:00,56.0,56.0,29.69,North,0,0.0,0.0,100,0.00,,,0.01,TxWx,2013-06-14 06:39:00,
2013-06-14 02:44:00,56.0,56.0,29.69,WNW,292,3.0,3.0,100,0.00,,,0.01,TxWx,2013-06-14 06:44:00,
2013-06-14 02:49:00,56.0,56.0,29.69,WNW,292,2.0,3.0,100,0.00,,,0.01,TxWx,2013-06-14 06:49:00,
2013-06-14 02:54:00,56.0,56.0,29.69,NNW,337,0.0,0.0,100,0.00,,,0.01,TxWx,2013-06-14 06:54:00,
2013-06-14 02:59:00,56.0,56.0,29.69,NNW,337,3.0,3.0,100,0.00,,,0.01,TxWx,2013-06-14 06:59:00,
2013-06-14 03:04:00,56.0,56.0,29.69,West,270,1.0,2.0,100,0.00,,,0.01,TxWx,2013-06-14 07:04:00,
2013-06-14 03:10:00,56.0,56.0,29.70,NNW,337,1.0,3.0,100,0.00,,,0.01,TxWx,2013-06-14 07:10:00,
2013-06-14 03:15:00,56.0,56.0,29.70,NW,315,2.0,3.0,100,0.00,,,0.01,TxWx,2013-06-14 07:15:00,
2013-06-14 03:20:00,56.0,56.0,29.70,WNW,292,2.0,3.0,100,0.00,,,0.01,TxWx,2013-06-14 07:20:00,
2013-06-14 03:25:00,56.0,56.0,29.70,NE,45,0.0,0.0,100,0.00,,,0.01,TxWx,2013-06-14 07:25:00,
2013-06-14 03:30:00,56.0,56.0,29.70,East,90,0.0,0.0,100,0.00,,,0.01,TxWx,2013-06-14 07:30:00,
2013-06-14 03:35:00,56.0,56.0,29.70,NW,315,2.0,3.0,100,0.00,,,0.01,TxWx,2013-06-14 07:35:00,
2013-06-14 03:40:00,56.0,56.0,29.70,NNE,22,0.0,0.0,100,0.00,,,0.01,TxWx,2013-06-14 07:40:00,
2013-06-14 03:45:00,56.0,56.0,29.70,East,90,1.0,3.0,100,0.00,,,0.01,TxWx,2013-06-14 07:45:00,
2013-06-14 03:50:00,56.0,56.0,29.70,ESE,112,0.0,0.0,100,0.00,,,0.01,TxWx,2013-06-14 07:50:00,
2013-06-14 03:55:00,56.0,56.0,29.71,ESE,112,0.0,0.0,100,0.00,,,0.01,TxWx,2013-06-14 07:55:00,
2013-06-14 04:00:00,56.0,56.0,29.71,NW,315,2.0,3.0,100,0.00,,,0.01,TxWx,2013-06-14 08:00:00,
2013-06-14 04:05:00,56.0,56.0,29.71,NW,315,2.0,2.0,100,0.00,,,0.01,TxWx,2013-06-14 08:05:00,
2013-06-14 04:10:00,56.0,56.0,29.71,NW,315,3.0,3.0,100,0.00,,,0.01,TxWx,2013-06-14 08:10:00,
2013-06-14 04:15:00,56.0,56.0,29.71,SW,225,0.0,1.0,100,0.00,,,0.01,TxWx,2013-06-14 08:15:00,
2013-06-14 04:20:00,56.0,56.0,29.71,North,0,0.0,0.0,100,0.00,,,0.01,TxWx,2013-06-14 08:20:00,
2013-06-14 04:26:00,56.0,56.0,29.72,ENE,67,0.0,1.0,100,0.00,,,0.01,TxWx,2013-06-14 08:26:00,
2013-06-14 04:31:00,56.0,56.0,29.71,East,90,1.0,2.0,100,0.00,,,0.01,TxWx,2013-06-14 08:31:00,
2013-06-14 04:36:00,56.0,56.0,29.71,ENE,67,1.0,2.0,100,0.00,,,0.01,TxWx,2013-06-14 08:36:00,
2013-06-14 04:41:00,56.0,56.0,29.71,NE,45,0.0,1.0,100,0.00,,,0.01,TxWx,2013-06-14 08:41:00,
2013-06-14 04:46:00,56.0,56.0,29.72,SSE,157,0.0,0.0,100,0.00,,,0.01,TxWx,2013-06-14 08:46:00,
2013-06-14 04:51:00,56.0,56.0,29.72,East,90,0.0,0.0,100,0.00,,,0.01,TxWx,2013-06-14 08:51:00,
2013-06-14 04:56:00,56.0,56.0,29.72,East,90,0.0,0.0,100,0.00,,,0.01,TxWx,2013-06-14 08:56:00,
2013-06-14 05:01:00,56.0,56.0,29.72,ESE,112,0.0,0.0,100,0.00,,,0.01,TxWx,2013-06-14 09:01:00,
2013-06-14 05:07:00,56.0,56.0,29.72,ESE,112,0.0,0.0,100,0.00,,,0.01,TxWx,2013-06-14 09:07:00,
2013-06-14 05:12:00,56.0,56.0,29.72,ESE,112,0.0,0.0,100,0.00,,,0.01,TxWx,2013-06-14 09:12:00,
2013-06-14 05:17:00,56.0,56.0,29.72,SE,135,0.0,0.0,100,0.00,,,0.01,TxWx,2013-06-14 09:17:00,
2013-06-14 05:22:00,56.0,56.0,29.72,NNW,337,1.0,2.0,100,0.00,,,0.01,TxWx,2013-06-14 09:22:00,
2013-06-14 05:27:00,56.0,56.0,29.72,ENE,67,0.0,0.0,100,0.00,,,0.01,TxWx,2013-06-14 09:27:00,
2013-06-14 05:32:00,56.0,56.0,29.72,ENE,67,2.0,2.0,100,0.00,,,0.01,TxWx,2013-06-14 09:32:00,
2013-06-14 05:37:00,56.0,56.0,29.72,East,90,1.0,2.0,100,0.00,,,0.01,TxWx,2013-06-14 09:37:00,
2013-06-14 05:42:00,56.0,56.0,29.72,East,90,0.0,0.0,100,0.00,,,0.01,TxWx,2013-06-14 09:42:00,
2013-06-14 05:47:00,56.0,56.0,29.73,ESE,112,0.0,0.0,100,0.00,,,0.01,TxWx,2013-06-14 09:47:00,
2013-06-14 05:52:00,56.0,56.0,29.73,ESE,112,0.0,0.0,100,0.00,,,0.01,TxWx,2013-06-14 09:52:00,
2013-06-14 05:57:00,56.0,56.0,29.73,SE,135,0.0,0.0,100,0.00,,,0.01,TxWx,2013-06-14 09:57:00,
2013-06-14 06:02:00,56.0,56.0,29.73,SE,135,0.0,0.0,100,0.00,,,0.01,TxWx,2013-06-14 10:02:00,
2013-06-14 06:07:00,56.0,56.0,29.73,SE,135,0.0,0.0,100,0.00,,,0.01,TxWx,2013-06-14 10:07:00,
2013-06-14 06:12:00,56.0,56.0,29.73,SE,135,0.0,0.0,100,0.00,,,0.01,TxWx,2013-06-14 10:12:00,
2013-06-14 06:17:00,56.0,56.0,29.73,ESE,112,0.0,0.0,100,0.00,,,0.01,TxWx,2013-06-14 10:17:00,
2013-06-14 06:23:00,56.0,56.0,29.72,ESE,112,0.0,1.0,100,0.00,,,0.01,TxWx,2013-06-14 10:23:00,
2013-06-14 06:28:00,56.0,56.0,29.73,SE,135,0.0,0.0,100,0.00,,,0.01,TxWx,2013-06-14 10:28:00,
2013-06-14 06:33:00,56.0,56.0,29.73,SE,135,0.0,0.0,100,0.00,,,0.01,TxWx,2013-06-14 10:33:00,
2013-06-14 06:38:00,56.0,56.0,29.73,SE,135,0.0,0.0,100,0.00,,,0.01,TxWx,2013-06-14 10:38:00,
2013-06-14 06:43:00,56.0,56.0,29.73,ESE,112,0.0,0.0,100,0.00,,,0.01,TxWx,2013-06-14 10:43:00,
2013-06-14 06:48:00,57.0,57.0,29.73,ESE,112,0.0,0.0,100,0.00,,,0.01,TxWx,2013-06-14 10:48:00,
2013-06-14 06:53:00,57.0,57.0,29.73,ESE,112,0.0,0.0,100,0.00,,,0.01,TxWx,2013-06-14 10:53:00,
2013-06-14 06:58:00,57.0,57.0,29.72,ESE,112,0.0,0.0,100,0.00,,,0.01,TxWx,2013-06-14 10:58:00,
2013-06-14 07:03:00,57.0,57.0,29.73,East,90,0.0,0.0,100,0.00,,,0.01,TxWx,2013-06-14 11:03:00,
2013-06-14 07:08:00,57.0,57.0,29.73,ESE,112,1.0,1.0,100,0.00,,,0.01,TxWx,2013-06-14 11:08:00,
2013-06-14 07:13:00,57.0,57.0,29.73,SSE,157,1.0,2.0,100,0.00,,,0.01,TxWx,2013-06-14 11:13:00,
2013-06-14 07:18:00,57.0,57.0,29.73,ESE,112,0.0,0.0,100,0.00,,,0.01,TxWx,2013-06-14 11:18:00,
2013-06-14 07:23:00,57.0,57.0,29.73,ESE,112,0.0,0.0,100,0.00,,,0.01,TxWx,2013-06-14 11:23:00,
2013-06-14 07:28:00,57.0,57.0,29.73,ESE,112,0.0,0.0,100,0.00,,,0.01,TxWx,2013-06-14 11:28:00,
2013-06-14 07:34:00,57.0,57.0,29.73,East,90,0.0,0.0,100,0.00,,,0.01,TxWx,2013-06-14 11:34:00,
2013-06-14 07:39:00,57.0,57.0,29.73,East,90,0.0,0.0,100,0.00,,,0.01,TxWx,2013-06-14 11:39:00,
2013-06-14 07:44:00,57.0,57.0,29.73,SSE,157,0.0,0.0,100,0.00,,,0.01,TxWx,2013-06-14 11:44:00,
2013-06-14 07:49:00,57.0,57.0,29.73,ENE,67,0.0,0.0,100,0.00,,,0.01,TxWx,2013-06-14 11:49:00,
2013-06-14 07:54:00,58.0,58.0,29.73,SE,135,0.0,0.0,100,0.00,,,0.01,TxWx,2013-06-14 11:54:00,
2013-06-14 07:59:00,58.0,58.0,29.73,NE,45,0.0,0.0,100,0.00,,,0.01,TxWx,2013-06-14 11:59:00,
2013-06-14 08:04:00,58.0,58.0,29.73,ENE,67,0.0,0.0,100,0.00,,,0.01,TxWx,2013-06-14 12:04:00,
2013-06-14 08:09:00,58.0,58.0,29.73,ESE,112,0.0,0.0,100,0.00,,,0.01,TxWx,2013-06-14 12:09:00,
2013-06-14 08:14:00,59.0,59.0,29.74,ENE,67,0.0,1.0,100,0.00,,,0.01,TxWx,2013-06-14 12:14:00,
2013-06-14 08:19:00,59.0,59.0,29.74,ENE,67,0.0,0.0,100,0.00,,,0.01,TxWx,2013-06-14 12:19:00,
2013-06-14 08:24:00,59.0,59.0,29.74,ESE,112,2.0,3.0,100,0.00,,,0.01,TxWx,2013-06-14 12:24:00,
2013-06-14 08:29:00,59.0,59.0,29.74,East,90,1.0,1.0,100,0.00,,,0.01,TxWx,2013-06-14 12:29:00,
2013-06-14 08:34:00,59.0,59.0,29.74,NE,45,2.0,2.0,100,0.00,,,0.01,TxWx,2013-06-14 12:34:00,
2013-06-14 08:39:00,59.0,59.0,29.74,NE,45,3.0,3.0,100,0.00,,,0.01,TxWx,2013-06-14 12:39:00,
2013-06-14 08:45:00,59.0,59.0,29.74,NE,45,0.0,1.0,100,0.00,,,0.01,TxWx,2013-06-14 12:45:00,
2013-06-14 08:50:00,59.0,59.0,29.74,NE,45,3.0,3.0,100,0.00,,,0.01,TxWx,2013-06-14 12:50:00,
2013-06-14 08:55:00,59.0,59.0,29.74,NE,45,4.0,4.0,100,0.00,,,0.01,TxWx,2013-06-14 12:55:00,
2013-06-14 09:00:00,59.0,59.0,29.75,East,90,3.0,3.0,100,0.00,,,0.01,TxWx,2013-06-14 13:00:00,
2013-06-14 09:05:00,60.0,60.0,29.75,ENE,67,1.0,3.0,100,0.00,,,0.01,TxWx,2013-06-14 13:05:00,
2013-06-14 09:10:00,60.0,60.0,29.74,East,90,1.0,3.0,100,0.00,,,0.01,TxWx,2013-06-14 13:10:00,
2013-06-14 09:15:00,61.0,61.0,29.74,East,90,0.0,0.0,100,0.00,,,0.01,TxWx,2013-06-14 13:15:00,
2013-06-14 09:20:00,61.0,61.0,29.75,ESE,112,0.0,1.0,100,0.00,,,0.01,TxWx,2013-06-14 13:20:00,
2013-06-14 09:25:00,61.0,61.0,29.75,ENE,67,2.0,3.0,100,0.00,,,0.01,TxWx,2013-06-14 13:25:00,
2013-06-14 09:30:00,62.0,62.0,29.74,West,270,3.0,4.0,100,0.00,,,0.01,TxWx,2013-06-14 13:30:00,
2013-06-14 09:35:00,63.0,63.0,29.74,NE,45,1.0,3.0,100,0.00,,,0.01,TxWx,2013-06-14 13:35:00,
2013-06-14 09:40:00,63.0,63.0,29.74,NNW,337,2.0,3.0,100,0.00,,,0.01,TxWx,2013-06-14 13:40:00,
2013-06-14 09:45:00,63.0,63.0,29.74,NNW,337,7.0,7.0,99,0.00,,,0.01,TxWx,2013-06-14 13:45:00,
2013-06-14 09:51:00,63.0,62.0,29.74,NW,315,8.0,8.0,95,0.00,,,0.01,TxWx,2013-06-14 13:51:00,
2013-06-14 09:56:00,63.0,61.0,29.75,South,180,3.0,3.0,95,0.00,,,0.01,TxWx,2013-06-14 13:56:00,
2013-06-14 10:01:00,64.0,62.0,29.74,WNW,292,4.0,5.0,93,0.00,,,0.01,TxWx,2013-06-14 14:01:00,
2013-06-14 10:06:00,64.0,61.0,29.74,WNW,292,5.0,5.0,90,0.00,,,0.01,TxWx,2013-06-14 14:06:00,
2013-06-14 10:11:00,65.0,62.0,29.74,West,270,4.0,4.0,90,0.00,,,0.01,TxWx,2013-06-14 14:11:00,
2013-06-14 10:16:00,64.0,60.0,29.74,WNW,292,8.0,8.0,86,0.00,,,0.01,TxWx,2013-06-14 14:16:00,
2013-06-14 10:21:00,65.0,60.0,29.74,NNW,337,5.0,5.0,85,0.00,,,0.01,TxWx,2013-06-14 14:21:00,
2013-06-14 10:26:00,65.0,60.0,29.74,WNW,292,1.0,3.0,85,0.00,,,0.01,TxWx,2013-06-14 14:26:00,
2013-06-14 10:31:00,66.0,60.0,29.75,NNW,337,8.0,9.0,83,0.00,,,0.01,TxWx,2013-06-14 14:31:00,
2013-06-14 10:36:00,66.0,60.0,29.75,NNE,22,5.0,7.0,83,0.00,,,0.01,TxWx,2013-06-14 14:36:00,
2013-06-14 10:41:00,67.0,61.0,29.75,NNE,22,5.0,6.0,82,0.00,,,0.01,TxWx,2013-06-14 14:41:00,
2013-06-14 10:46:00,67.0,61.0,29.75,WNW,292,3.0,5.0,81,0.00,,,0.01,TxWx,2013-06-14 14:46:00,
2013-06-14 10:51:00,67.0,60.0,29.74,NE,45,4.0,5.0,80,0.00,,,0.01,TxWx,2013-06-14 14:51:00,
2013-06-14 10:57:00,67.0,60.0,29.75,WNW,292,2.0,3.0,78,0.00,,,0.01,TxWx,2013-06-14 14:57:00,
2013-06-14 11:02:00,67.0,60.0,29.75,North,0,2.0,4.0,78,0.00,,,0.01,TxWx,2013-06-14 15:02:00,
2013-06-14 11:07:00,68.0,61.0,29.75,NE,45,2.0,3.0,78,0.00,,,0.01,TxWx,2013-06-14 15:07:00,
2013-06-14 11:12:00,68.0,60.0,29.75,NNE,22,6.0,6.0,76,0.00,,,0.01,TxWx,2013-06-14 15:12:00,
2013-06-14 11:17:00,68.0,60.0,29.75,North,0,4.0,4.0,75,0.00,,,0.01,TxWx,2013-06-14 15:17:00,
2013-06-14 11:22:00,68.0,59.0,29.75,NNW,337,6.0,7.0,73,0.00,,,0.01,TxWx,2013-06-14 15:22:00,
2013-06-14 11:27:00,69.0,60.0,29.75,NNW,337,3.0,5.0,73,0.00,,,0.01,TxWx,2013-06-14 15:27:00,
2013-06-14 11:32:00,69.0,60.0,29.75,East,90,1.0,1.0,74,0.00,,,0.01,TxWx,2013-06-14 15:32:00,
2013-06-14 11:37:00,70.0,61.0,29.75,NE,45,4.0,6.0,73,0.00,,,0.01,TxWx,2013-06-14 15:37:00,
2013-06-14 11:42:00,69.0,60.0,29.76,NNE,22,4.0,5.0,73,0.00,,,0.01,TxWx,2013-06-14 15:42:00,
2013-06-14 11:47:00,70.0,61.0,29.75,NNE,22,3.0,4.0,72,0.00,,,0.01,TxWx,2013-06-14 15:47:00,
2013-06-14 11:52:00,70.0,60.0,29.76,WNW,292,3.0,3.0,71,0.00,,,0.01,TxWx,2013-06-14 15:52:00,
2013-06-14 11:57:00,71.0,61.0,29.76,East,90,1.0,3.0,71,0.00,,,0.01,TxWx,2013-06-14 15:57:00,
2013-06-14 12:02:00,71.0,61.0,29.75,WNW,292,5.0,6.0,71,0.00,,,0.01,TxWx,2013-06-14 16:02:00,
2013-06-14 12:08:00,71.0,60.0,29.76,NNW,337,5.0,6.0,69,0.00,,,0.01,TxWx,2013-06-14 16:08:00,
2013-06-14 12:13:00,71.0,60.0,29.76,ENE,67,4.0,5.0,69,0.00,,,0.01,TxWx,2013-06-14 16:13:00,
2013-06-14 12:18:00,71.0,60.0,29.76,NNE,22,5.0,7.0,68,0.00,,,0.01,TxWx,2013-06-14 16:18:00,
2013-06-14 12:23:00,71.0,60.0,29.76,NNE,22,7.0,7.0,69,0.00,,,0.01,TxWx,2013-06-14 16:23:00,
2013-06-14 12:28:00,71.0,60.0,29.75,NNW,337,6.0,7.0,68,0.00,,,0.01,TxWx,2013-06-14 16:28:00,
2013-06-14 12:33:00,71.0,60.0,29.75,ENE,67,6.0,8.0,68,0.00,,,0.01,TxWx,2013-06-14 16:33:00,
2013-06-14 12:38:00,71.0,60.0,29.75,NNW,337,7.0,10.0,69,0.00,,,0.01,TxWx,2013-06-14 16:38:00,
2013-06-14 12:44:00,72.0,61.0,29.75,NNE,22,4.0,5.0,68,0.00,,,0.01,TxWx,2013-06-14 16:44:00,
2013-06-14 12:49:00,73.0,60.0,29.75,NNW,337,5.0,8.0,65,0.00,,,0.01,TxWx,2013-06-14 16:49:00,
2013-06-14 12:54:00,72.0,60.0,29.75,NE,45,5.0,6.0,66,0.00,,,0.01,TxWx,2013-06-14 16:54:00,
2013-06-14 13:00:00,73.0,61.0,29.75,NE,45,5.0,5.0,66,0.00,,,0.01,TxWx,2013-06-14 17:00:00,
2013-06-14 13:05:00,72.0,59.0,29.74,NNE,22,8.0,9.0,63,0.00,,,0.01,TxWx,2013-06-14 17:05:00,
2013-06-14 13:10:00,72.0,59.0,29.75,NNE,22,3.0,5.0,64,0.00,,,0.01,TxWx,2013-06-14 17:10:00,
2013-06-14 13:15:00,73.0,59.0,29.74,NNE,22,3.0,3.0,63,0.00,,,0.01,TxWx,2013-06-14 17:15:00,
2013-06-14 13:20:00,73.0,58.0,29.75,NNE,22,10.0,11.0,61,0.00,,,0.01,TxWx,2013-06-14 17:20:00,
2013-06-14 13:26:00,73.0,58.0,29.75,North,0,6.0,6.0,60,0.00,,,0.01,TxWx,2013-06-14 17:26:00,
2013-06-14 13:31:00,73.0,56.0,29.75,NNW,337,6.0,10.0,56,0.00,,,0.01,TxWx,2013-06-14 17:31:00,
2013-06-14 13:36:00,74.0,59.0,29.75,North,0,3.0,5.0,59,0.00,,,0.01,TxWx,2013-06-14 17:36:00,
2013-06-14 13:42:00,75.0,57.0,29.74,North,0,6.0,9.0,54,0.00,,,0.01,TxWx,2013-06-14 17:42:00,
2013-06-14 13:47:00,75.0,57.0,29.75,North,0,4.0,8.0,55,0.00,,,0.01,TxWx,2013-06-14 17:47:00,
2013-06-14 13:52:00,75.0,58.0,29.74,West,270,3.0,3.0,56,0.00,,,0.01,TxWx,2013-06-14 17:52:00,
2013-06-14 13:57:00,75.0,58.0,29.74,NW,315,10.0,10.0,55,0.00,,,0.01,TxWx,2013-06-14 17:57:00,
2013-06-14 14:03:00,75.0,57.0,29.74,NNW,337,7.0,7.0,54,0.00,,,0.01,TxWx,2013-06-14 18:03:00,
2013-06-14 14:08:00,75.0,57.0,29.74,NNW,337,6.0,9.0,53,0.00,,,0.01,TxWx,2013-06-14 18:08:00,
2013-06-14 14:13:00,75.0,56.0,29.73,NNE,22,9.0,13.0,53,0.00,,,0.01,TxWx,2013-06-14 18:13:00,
2013-06-14 14:19:00,75.0,56.0,29.73,NNW,337,8.0,12.0,53,0.00,,,0.01,TxWx,2013-06-14 18:19:00,
2013-06-14 14:24:00,76.0,58.0,29.73,NNW,337,13.0,15.0,53,0.00,,,0.01,TxWx,2013-06-14 18:24:00,
2013-06-14 14:29:00,76.0,58.0,29.73,NNW,337,6.0,7.0,54,0.00,,,0.01,TxWx,2013-06-14 18:29:00,
2013-06-14 14:34:00,77.0,58.0,29.73,NNW,337,6.0,8.0,53,0.00,,,0.01,TxWx,2013-06-14 18:34:00,
2013-06-14 14:40:00,76.0,58.0,29.73,NNW,337,14.0,14.0,53,0.00,,,0.01,TxWx,2013-06-14 18:40:00,
2013-06-14 14:45:00,76.0,57.0,29.73,NNW,337,10.0,10.0,52,0.00,,,0.01,TxWx,2013-06-14 18:45:00,
2013-06-14 14:50:00,76.0,57.0,29.73,NNW,337,8.0,8.0,52,0.00,,,0.01,TxWx,2013-06-14 18:50:00,
2013-06-14 14:55:00,76.0,58.0,29.73,NNW,337,8.0,8.0,54,0.00,,,0.01,TxWx,2013-06-14 18:55:00,
2013-06-14 15:00:00,77.0,58.0,29.73,North,0,1.0,5.0,53,0.00,,,0.01,TxWx,2013-06-14 19:00:00,
2013-06-14 15:01:00,63.0,61.0,29.87,ENE,67,0.0,1.0,93,0.00,,,0.00,TxWx,2013-06-14 19:01:00,
2013-06-14 15:02:00,63.0,61.0,29.87,NE,45,3.0,4.0,93,0.00,,,0.00,TxWx,2013-06-14 19:02:00,
2013-06-14 15:03:00,63.0,61.0,29.87,NE,45,3.0,3.0,93,0.00,,,0.00,TxWx,2013-06-14 19:03:00,
2013-06-14 15:04:00,63.0,61.0,29.87,WNW,292,3.0,3.0,93,0.00,,,0.00,TxWx,2013-06-14 19:04:00,
2013-06-14 15:05:00,77.0,59.0,29.74,NW,315,6.0,6.0,53,0.00,,,0.01,TxWx,2013-06-14 19:05:00,
2013-06-14 15:06:00,63.0,61.0,29.87,NE,45,0.0,1.0,93,0.00,,,0.00,TxWx,2013-06-14 19:06:00,
2013-06-14 15:07:00,63.0,61.0,29.87,NE,45,3.0,3.0,93,0.00,,,0.00,TxWx,2013-06-14 19:07:00,
2013-06-14 15:08:00,63.0,61.0,29.87,ENE,67,1.0,1.0,93,0.00,,,0.00,TxWx,2013-06-14 19:08:00,
2013-06-14 15:09:00,63.0,61.0,29.87,NE,45,1.0,1.0,93,0.00,,,0.00,TxWx,2013-06-14 19:09:00,
2013-06-14 15:10:00,77.0,59.0,29.74,NNW,337,9.0,10.0,54,0.00,,,0.01,TxWx,2013-06-14 19:10:00,
2013-06-14 15:11:00,63.0,61.0,29.87,ENE,67,1.0,1.0,93,0.00,,,0.00,TxWx,2013-06-14 19:11:00,
2013-06-14 15:12:00,63.0,61.0,29.87,NE,45,2.0,3.0,93,0.00,,,0.00,TxWx,2013-06-14 19:12:00,
2013-06-14 15:13:00,63.0,61.0,29.87,NNE,22,0.0,0.0,93,0.00,,,0.00,TxWx,2013-06-14 19:13:00,
2013-06-14 15:14:00,63.0,61.0,29.87,East,90,0.0,1.0,93,0.00,,,0.00,TxWx,2013-06-14 19:14:00,
2013-06-14 15:15:00,63.0,61.0,29.87,ENE,67,0.0,0.0,93,0.00,,,0.00,TxWx,2013-06-14 19:15:00,
2013-06-14 15:16:00,77.0,59.0,29.74,WNW,292,3.0,3.0,55,0.00,,,0.01,TxWx,2013-06-14 19:16:00,
2013-06-14 15:17:00,63.0,61.0,29.87,ESE,112,0.0,1.0,93,0.00,,,0.00,TxWx,2013-06-14 19:17:00,
2013-06-14 15:18:00,63.0,61.0,29.87,ENE,67,0.0,0.0,93,0.00,,,0.00,TxWx,2013-06-14 19:18:00,
2013-06-14 15:19:00,63.0,61.0,29.87,East,90,0.0,0.0,93,0.00,,,0.00,TxWx,2013-06-14 19:19:00,
2013-06-14 15:20:00,63.0,61.0,29.87,East,90,0.0,0.0,93,0.00,,,0.00,TxWx,2013-06-14 19:20:00,
2013-06-14 15:21:00,76.0,60.0,29.74,SW,225,5.0,6.0,58,0.00,,,0.01,TxWx,2013-06-14 19:21:00,
2013-06-14 15:22:00,63.0,61.0,29.87,ESE,112,0.0,0.0,93,0.00,,,0.00,TxWx,2013-06-14 19:22:00,
2013-06-14 15:23:00,63.0,61.0,29.87,West,270,2.0,3.0,93,0.00,,,0.00,TxWx,2013-06-14 19:23:00,
2013-06-14 15:24:00,63.0,61.0,29.87,East,90,1.0,2.0,93,0.00,,,0.00,TxWx,2013-06-14 19:24:00,
2013-06-14 15:25:00,63.0,61.0,29.87,West,270,3.0,5.0,93,0.00,,,0.00,TxWx,2013-06-14 19:25:00,
2013-06-14 15:26:00,74.0,62.0,29.74,WSW,247,5.0,8.0,67,0.00,,,0.01,TxWx,2013-06-14 19:26:00,
2013-06-14 15:27:00,63.0,61.0,29.87,South,180,0.0,1.0,93,0.00,,,0.00,TxWx,2013-06-14 19:27:00,
2013-06-14 15:28:00,63.0,61.0,29.87,SE,135,0.0,0.0,93,0.00,,,0.00,TxWx,2013-06-14 19:28:00,
2013-06-14 15:29:00,63.0,61.0,29.87,ENE,67,1.0,1.0,93,0.00,,,0.00,TxWx,2013-06-14 19:29:00,
2013-06-14 15:30:00,63.0,61.0,29.87,West,270,1.0,1.0,93,0.00,,,0.00,TxWx,2013-06-14 19:30:00,
2013-06-14 15:31:00,63.0,61.0,29.87,NW,315,1.0,5.0,93,0.00,,,0.00,TxWx,2013-06-14 19:31:00,
2013-06-14 15:32:00,74.0,63.0,29.74,West,270,7.0,7.0,69,0.00,,,0.01,TxWx,2013-06-14 19:32:00,
2013-06-14 15:33:00,63.0,61.0,29.87,West,270,3.0,5.0,92,0.00,,,0.00,TxWx,2013-06-14 19:33:00,
2013-06-14 15:34:00,63.0,61.0,29.87,West,270,2.0,3.0,92,0.00,,,0.00,TxWx,2013-06-14 19:34:00,
2013-06-14 15:35:00,63.0,60.0,29.87,South,180,2.0,3.0,92,0.00,,,0.00,TxWx,2013-06-14 19:35:00,
2013-06-14 15:36:00,63.0,60.0,29.87,West,270,5.0,5.0,92,0.00,,,0.00,TxWx,2013-06-14 19:36:00,
2013-06-14 15:37:00,74.0,62.0,29.74,NW,315,3.0,5.0,67,0.00,,,0.01,TxWx,2013-06-14 19:37:00,
2013-06-14 15:38:00,64.0,61.0,29.87,West,270,3.0,3.0,91,0.00,,,0.00,TxWx,2013-06-14 19:38:00,
2013-06-14 15:39:00,64.0,61.0,29.87,SSE,157,1.0,3.0,91,0.00,,,0.00,TxWx,2013-06-14 19:39:00,
2013-06-14 15:40:00,64.0,61.0,29.87,SSE,157,0.0,2.0,91,0.00,,,0.00,TxWx,2013-06-14 19:40:00,
2013-06-14 15:41:00,64.0,61.0,29.87,West,270,2.0,3.0,91,0.00,,,0.00,TxWx,2013-06-14 19:41:00,
2013-06-14 15:42:00,74.0,61.0,29.74,WSW,247,3.0,5.0,63,0.00,,,0.01,TxWx,2013-06-14 19:42:00,
2013-06-14 15:43:00,64.0,61.0,29.87,ENE,67,0.0,1.0,90,0.00,,,0.00,TxWx,2013-06-14 19:43:00,
2013-06-14 15:44:00,64.0,61.0,29.87,West,270,1.0,3.0,90,0.00,,,0.00,TxWx,2013-06-14 19:44:00,
2013-06-14 15:45:00,64.0,61.0,29.87,ENE,67,1.0,2.0,90,0.00,,,0.00,TxWx,2013-06-14 19:45:00,
2013-06-14 15:46:00,64.0,61.0,29.87,West,270,1.0,3.0,90,0.00,,,0.00,TxWx,2013-06-14 19:46:00,
2013-06-14 15:47:00,74.0,61.0,29.74,West,270,3.0,6.0,63,0.00,,,0.01,TxWx,2013-06-14 19:47:00,
2013-06-14 15:48:00,64.0,61.0,29.87,WSW,247,3.0,5.0,90,0.00,,,0.00,TxWx,2013-06-14 19:48:00,
2013-06-14 15:49:00,64.0,61.0,29.87,SE,135,0.0,1.0,90,0.00,,,0.00,TxWx,2013-06-14 19:49:00,
2013-06-14 15:50:00,64.0,61.0,29.87,West,270,3.0,4.0,89,0.00,,,0.00,TxWx,2013-06-14 19:50:00,
2013-06-14 15:51:00,64.0,61.0,29.87,ENE,67,0.0,1.0,89,0.00,,,0.00,TxWx,2013-06-14 19:51:00,
2013-06-14 15:52:00,64.0,61.0,29.87,NW,315,2.0,3.0,89,0.00,,,0.00,TxWx,2013-06-14 19:52:00,
2013-06-14 15:53:00,74.0,60.0,29.74,SW,225,10.0,10.0,62,0.00,,,0.01,TxWx,2013-06-14 19:53:00,
2013-06-14 15:54:00,64.0,61.0,29.87,East,90,0.0,0.0,89,0.00,,,0.00,TxWx,2013-06-14 19:54:00,
2013-06-14 15:58:00,74.0,60.0,29.74,WSW,247,7.0,10.0,62,0.00,,,0.01,TxWx,2013-06-14 19:58:00,
2013-06-14 16:03:00,74.0,61.0,29.75,WNW,292,6.0,6.0,63,0.00,,,0.01,TxWx,2013-06-14 20:03:00,
2013-06-14 16:09:00,73.0,60.0,29.75,WSW,247,11.0,11.0,65,0.00,,,0.01,TxWx,2013-06-14 20:09:00,
2013-06-14 16:14:00,72.0,61.0,29.75,WSW,247,6.0,6.0,68,0.00,,,0.01,TxWx,2013-06-14 20:14:00,
2013-06-14 16:19:00,72.0,61.0,29.75,WSW,247,4.0,6.0,68,0.00,,,0.01,TxWx,2013-06-14 20:19:00,
2013-06-14 16:24:00,71.0,61.0,29.75,WSW,247,9.0,10.0,72,0.00,,,0.01,TxWx,2013-06-14 20:24:00,
2013-06-14 16:30:00,71.0,62.0,29.75,SW,225,5.0,8.0,74,0.00,,,0.01,TxWx,2013-06-14 20:30:00,
2013-06-14 16:35:00,71.0,63.0,29.75,WSW,247,11.0,11.0,75,0.00,,,0.01,TxWx,2013-06-14 20:35:00,
2013-06-14 16:41:00,71.0,63.0,29.75,West,270,8.0,8.0,76,0.00,,,0.01,TxWx,2013-06-14 20:41:00,
2013-06-14 16:46:00,71.0,63.0,29.75,WSW,247,10.0,12.0,76,0.00,,,0.01,TxWx,2013-06-14 20:46:00,
2013-06-14 16:51:00,71.0,64.0,29.75,SW,225,8.0,10.0,79,0.00,,,0.01,TxWx,2013-06-14 20:51:00,
2013-06-14 16:56:00,71.0,64.0,29.75,West,270,7.0,8.0,80,0.00,,,0.01,TxWx,2013-06-14 20:56:00,
2013-06-14 17:02:00,71.0,64.0,29.75,West,270,4.0,8.0,80,0.00,,,0.01,TxWx,2013-06-14 21:02:00,
2013-06-14 17:07:00,71.0,64.0,29.75,WSW,247,8.0,9.0,80,0.00,,,0.01,TxWx,2013-06-14 21:07:00,
2013-06-14 17:12:00,71.0,64.0,29.75,West,270,6.0,7.0,78,0.00,,,0.01,TxWx,2013-06-14 21:12:00,
2013-06-14 17:17:00,72.0,64.0,29.75,SW,225,3.0,5.0,77,0.00,,,0.01,TxWx,2013-06-14 21:17:00,
2013-06-14 17:22:00,72.0,64.0,29.75,WSW,247,6.0,6.0,77,0.00,,,0.01,TxWx,2013-06-14 21:22:00,
2013-06-14 17:28:00,72.0,64.0,29.75,WSW,247,3.0,4.0,77,0.00,,,0.01,TxWx,2013-06-14 21:28:00,
2013-06-14 17:33:00,72.0,64.0,29.76,WSW,247,3.0,5.0,77,0.00,,,0.01,TxWx,2013-06-14 21:33:00,
2013-06-14 17:38:00,72.0,64.0,29.75,South,180,8.0,9.0,77,0.00,,,0.01,TxWx,2013-06-14 21:38:00,
2013-06-14 17:43:00,72.0,64.0,29.75,SW,225,9.0,9.0,77,0.00,,,0.01,TxWx,2013-06-14 21:43:00,
2013-06-14 17:48:00,72.0,63.0,29.75,North,0,4.0,4.0,74,0.00,,,0.01,TxWx,2013-06-14 21:48:00,
2013-06-14 17:53:00,73.0,63.0,29.75,SW,225,3.0,3.0,72,0.00,,,0.01,TxWx,2013-06-14 21:53:00,
2013-06-14 17:59:00,73.0,63.0,29.75,SSW,202,3.0,4.0,72,0.00,,,0.01,TxWx,2013-06-14 21:59:00,
2013-06-14 18:04:00,73.0,64.0,29.75,West,270,3.0,4.0,73,0.00,,,0.01,TxWx,2013-06-14 22:04:00,
2013-06-14 18:09:00,73.0,63.0,29.75,South,180,3.0,5.0,72,0.00,,,0.01,TxWx,2013-06-14 22:09:00,
2013-06-14 18:14:00,73.0,63.0,29.75,SSW,202,3.0,4.0,72,0.00,,,0.01,TxWx,2013-06-14 22:14:00,
2013-06-14 18:19:00,73.0,63.0,29.76,SSW,202,3.0,4.0,71,0.00,,,0.01,TxWx,2013-06-14 22:19:00,
2013-06-14 18:24:00,73.0,63.0,29.76,SW,225,10.0,10.0,70,0.00,,,0.01,TxWx,2013-06-14 22:24:00,
2013-06-14 18:29:00,73.0,63.0,29.75,SW,225,3.0,6.0,72,0.00,,,0.01,TxWx,2013-06-14 22:29:00,
2013-06-14 18:34:00,73.0,63.0,29.76,WSW,247,6.0,8.0,72,0.00,,,0.01,TxWx,2013-06-14 22:34:00,
2013-06-14 18:39:00,73.0,63.0,29.76,SW,225,5.0,8.0,72,0.00,,,0.01,TxWx,2013-06-14 22:39:00,
2013-06-14 18:45:00,73.0,63.0,29.76,SW,225,7.0,8.0,72,0.00,,,0.01,TxWx,2013-06-14 22:45:00,
2013-06-14 18:50:00,73.0,63.0,29.76,WSW,247,6.0,6.0,72,0.00,,,0.01,TxWx,2013-06-14 22:50:00,
2013-06-14 18:55:00,73.0,63.0,29.76,SSW,202,10.0,10.0,70,0.00,,,0.01,TxWx,2013-06-14 22:55:00,
2013-06-14 19:00:00,73.0,63.0,29.76,SW,225,6.0,10.0,71,0.00,,,0.01,TxWx,2013-06-14 23:00:00,
2013-06-14 19:06:00,72.0,62.0,29.77,SW,225,6.0,8.0,71,0.00,,,0.01,TxWx,2013-06-14 23:06:00,
2013-06-14 19:11:00,72.0,62.0,29.77,West,270,3.0,5.0,72,0.00,,,0.01,TxWx,2013-06-14 23:11:00,
2013-06-14 19:16:00,72.0,62.0,29.77,SW,225,3.0,6.0,72,0.00,,,0.01,TxWx,2013-06-14 23:16:00,
2013-06-14 19:21:00,72.0,62.0,29.78,SW,225,6.0,6.0,72,0.00,,,0.01,TxWx,2013-06-14 23:21:00,
2013-06-14 19:26:00,72.0,62.0,29.78,South,180,2.0,3.0,72,0.00,,,0.01,TxWx,2013-06-14 23:26:00,
2013-06-14 19:32:00,72.0,63.0,29.78,WSW,247,3.0,3.0,73,0.00,,,0.01,TxWx,2013-06-14 23:32:00,
2013-06-14 19:37:00,72.0,63.0,29.78,WSW,247,3.0,4.0,73,0.00,,,0.01,TxWx,2013-06-14 23:37:00,
2013-06-14 19:42:00,72.0,63.0,29.78,SSE,157,1.0,3.0,74,0.00,,,0.01,TxWx,2013-06-14 23:42:00,
2013-06-14 19:48:00,72.0,63.0,29.78,WSW,247,3.0,5.0,73,0.00,,,0.01,TxWx,2013-06-14 23:48:00,
2013-06-14 19:53:00,71.0,62.0,29.78,SSW,202,3.0,3.0,73,0.00,,,0.01,TxWx,2013-06-14 23:53:00,
2013-06-14 19:58:00,71.0,61.0,29.78,WSW,247,4.0,6.0,72,0.00,,,0.01,TxWx,2013-06-14 23:58:00,
2013-06-14 20:03:00,71.0,61.0,29.78,WSW,247,8.0,8.0,72,0.00,,,0.01,TxWx,2013-06-15 00:03:00,
2013-06-14 20:08:00,71.0,61.0,29.78,West,270,3.0,4.0,72,0.00,,,0.01,TxWx,2013-06-15 00:08:00,
2013-06-14 20:13:00,71.0,61.0,29.78,North,0,1.0,3.0,72,0.00,,,0.01,TxWx,2013-06-15 00:13:00,
2013-06-14 20:19:00,71.0,62.0,29.78,South,180,0.0,1.0,73,0.00,,,0.01,TxWx,2013-06-15 00:19:00,
2013-06-14 20:24:00,71.0,62.0,29.79,NW,315,4.0,4.0,73,0.00,,,0.01,TxWx,2013-06-15 00:24:00,
2013-06-14 20:29:00,71.0,62.0,29.79,East,90,1.0,1.0,74,0.00,,,0.02,TxWx,2013-06-15 00:29:00,
2013-06-14 20:34:00,71.0,63.0,29.79,NNE,22,3.0,4.0,76,0.60,,,0.02,TxWx,2013-06-15 00:34:00,
2013-06-14 20:39:00,70.0,63.0,29.80,NW,315,4.0,5.0,78,0.60,,,0.02,TxWx,2013-06-15 00:39:00,
2013-06-14 20:44:00,69.0,63.0,29.80,NE,45,2.0,3.0,80,0.00,,,0.02,TxWx,2013-06-15 00:44:00,
2013-06-14 20:49:00,69.0,63.0,29.80,SW,225,0.0,0.0,81,0.00,,,0.02,TxWx,2013-06-15 00:49:00,
2013-06-14 20:54:00,69.0,63.0,29.80,WSW,247,1.0,1.0,82,0.00,,,0.02,TxWx,2013-06-15 00:54:00,
2013-06-14 20:59:00,69.0,63.0,29.81,South,180,1.0,1.0,82,0.00,,,0.02,TxWx,2013-06-15 00:59:00,
2013-06-14 21:05:00,68.0,62.0,29.81,WSW,247,2.0,3.0,83,0.00,,,0.02,TxWx,2013-06-15 01:05:00,
2013-06-14 21:10:00,68.0,62.0,29.82,NNW,337,0.0,0.0,83,0.00,,,0.02,TxWx,2013-06-15 01:10:00,
2013-06-14 21:15:00,68.0,62.0,29.82,SSW,202,0.0,0.0,83,0.00,,,0.02,TxWx,2013-06-15 01:15:00,
2013-06-14 21:21:00,68.0,62.0,29.82,SSW,202,0.0,0.0,83,0.00,,,0.02,TxWx,2013-06-15 01:21:00,
2013-06-14 21:26:00,68.0,62.0,29.83,SSE,157,0.0,0.0,83,0.00,,,0.02,TxWx,2013-06-15 01:26:00,
2013-06-14 21:31:00,68.0,63.0,29.83,SSE,157,0.0,0.0,83,0.00,,,0.02,TxWx,2013-06-15 01:31:00,
2013-06-14 21:36:00,69.0,64.0,29.83,ENE,67,0.0,1.0,83,0.00,,,0.02,TxWx,2013-06-15 01:36:00,
2013-06-14 21:42:00,69.0,64.0,29.83,South,180,0.0,0.0,84,0.00,,,0.02,TxWx,2013-06-15 01:42:00,
2013-06-14 21:47:00,68.0,63.0,29.83,ESE,112,0.0,0.0,85,0.00,,,0.02,TxWx,2013-06-15 01:47:00,
2013-06-14 21:52:00,68.0,63.0,29.83,West,270,6.0,7.0,84,0.00,,,0.02,TxWx,2013-06-15 01:52:00,
2013-06-14 21:57:00,68.0,62.0,29.84,WSW,247,3.0,4.0,82,0.00,,,0.02,TxWx,2013-06-15 01:57:00,
2013-06-14 22:03:00,68.0,62.0,29.84,South,180,3.0,5.0,80,0.00,,,0.02,TxWx,2013-06-15 02:03:00,
2013-06-14 22:08:00,69.0,62.0,29.83,WSW,247,3.0,3.0,80,0.00,,,0.02,TxWx,2013-06-15 02:08:00,
2013-06-14 22:13:00,69.0,62.0,29.84,WSW,247,3.0,4.0,79,0.00,,,0.02,TxWx,2013-06-15 02:13:00,
2013-06-14 22:18:00,68.0,61.0,29.84,West,270,5.0,5.0,79,0.00,,,0.02,TxWx,2013-06-15 02:18:00,
2013-06-14 22:23:00,68.0,61.0,29.84,SW,225,2.0,3.0,79,0.00,,,0.02,TxWx,2013-06-15 02:23:00,
2013-06-14 22:29:00,68.0,61.0,29.84,ESE,112,0.0,0.0,80,0.00,,,0.02,TxWx,2013-06-15 02:29:00,
2013-06-14 22:34:00,68.0,61.0,29.84,ESE,112,0.0,0.0,80,0.00,,,0.02,TxWx,2013-06-15 02:34:00,
2013-06-14 22:39:00,68.0,62.0,29.84,East,90,2.0,2.0,80,0.00,,,0.02,TxWx,2013-06-15 02:39:00,
2013-06-14 22:45:00,67.0,61.0,29.84,East,90,1.0,3.0,82,0.00,,,0.02,TxWx,2013-06-15 02:45:00,
2013-06-14 22:50:00,67.0,62.0,29.85,ENE,67,0.0,1.0,84,0.00,,,0.02,TxWx,2013-06-15 02:50:00,
2013-06-14 22:55:00,66.0,62.0,29.85,ENE,67,0.0,1.0,86,0.00,,,0.02,TxWx,2013-06-15 02:55:00,
2013-06-14 23:01:00,66.0,62.0,29.85,East,90,0.0,0.0,87,0.00,,,0.02,TxWx,2013-06-15 03:01:00,
2013-06-14 23:06:00,66.0,62.0,29.85,East,90,0.0,0.0,88,0.00,,,0.02,TxWx,2013-06-15 03:06:00,
2013-06-14 23:11:00,65.0,62.0,29.85,ESE,112,0.0,0.0,89,0.00,,,0.02,TxWx,2013-06-15 03:11:00,
2013-06-14 23:16:00,65.0,62.0,29.85,East,90,0.0,0.0,89,0.00,,,0.02,TxWx,2013-06-15 03:16:00,
2013-06-14 23:22:00,65.0,62.0,29.85,North,0,0.0,1.0,90,0.00,,,0.02,TxWx,2013-06-15 03:22:00,
2013-06-14 23:27:00,65.0,62.0,29.85,NE,45,0.0,0.0,90,0.00,,,0.02,TxWx,2013-06-15 03:27:00,
2013-06-14 23:33:00,64.0,61.0,29.86,NE,45,2.0,2.0,90,0.00,,,0.02,TxWx,2013-06-15 03:33:00,
2013-06-14 23:38:00,64.0,61.0,29.86,ESE,112,0.0,0.0,91,0.00,,,0.02,TxWx,2013-06-15 03:38:00,
2013-06-14 23:43:00,64.0,61.0,29.86,NE,45,1.0,2.0,92,0.00,,,0.02,TxWx,2013-06-15 03:43:00,
2013-06-14 23:48:00,64.0,62.0,29.86,NE,45,3.0,3.0,92,0.00,,,0.02,TxWx,2013-06-15 03:48:00,
2013-06-14 23:53:00,64.0,62.0,29.86,ENE,67,3.0,3.0,92,0.00,,,0.02,TxWx,2013-06-15 03:53:00,
2013-06-14 23:58:00,63.0,61.0,29.87,NE,45,2.0,3.0,93,0.00,,,0.02,TxWx,2013-06-15 03:58:00,